Вернуться в каталог

KUIPER-00077

АктивенСвязьLEO
NORAD 64824·PAYLOAD·🇺🇸 United States

Запущен Jul 16, 2025 с Cape Canaveral Space Force Station

Loading…

Ближайшие Пролёты (ближайшие 24 часа)

TLE

СвежийSource: CelesTrak SupGP

Эпоха: Sep 14, 2026, 16:57 UTC

1 64824C 25151J   26257.70694444 -.00009298  00000+0 -12172-2 0  2579
2 64824  51.9002 182.2894 0001079  77.7527 259.4139 14.79937021    16

Отслеживайте KUIPER-00077 в реальном времени с AllMySat

Download on the App Store